Location: Marcé
(47.5801°N, 0.3280°W)
Time: 22:36:57
(UTC+01:00)

Transit 2A - Pass Details

Date: 05 December 2021
Orbit: 591 x 967 km, 66.7° (Epoch: 23 January)

Event Time Altitude Azimuth Distance (km) Brightness Sun altitude
Rises 02:28:28 0° 248° (WSW) 3,379 - -58.2°
Reaches altitude 10° 02:31:06 10° 258° (WSW) 2,505 - -57.9°
Maximum altitude 02:36:20 33° 321° (NW) 1,506 - -57.3°
Drops below altitude 10° 02:41:56 10° 24° (NNE) 2,682 - -56.5°
Exits shadow 02:44:11 - 32° (NNE) 3,423 9.8 -56.2°
Sets 02:44:51 0° 34° (NE) 3,653 10.0 -56.2°
